IK6DEN Weather Reports


Display with metric or nautical units.
time (UTC)temp
F
wind
direction
speed
MPH
gust
MPH
rain 1hr
in
rain 24hr
in
rain mn
in
humidity
%
barometer
mb
20260507093051 65 237 4.0 6.0 0.01 0.04 0.02 50 1013.4
20260507092048 65 206 4.0 7.0 0.00 0.02 0.01 50 1013.3
20260507091043 65 203 1.0 3.0 0.00 0.02 0.01 51 1013.5
20260507090038 64 215 3.0 4.0 0.00 0.02 0.01 52 1013.6
20260507085034 63 243 2.0 4.0 0.00 0.02 0.01 55 1013.7
20260507084030 63 214 3.0 6.0 0.00 0.02 0.01 57 1013.8
20260507083026 62 241 1.0 6.0 0.00 0.02 0.01 60 1013.8
20260507082041 62 240 3.0 6.0 0.00 0.02 0.01 61 1013.7
20260507081017 62 203 2.0 5.0 0.00 0.02 0.01 61 1013.8
20260507080113 61 203 1.0 3.0 0.00 0.02 0.01 63 1014.0
20260507075108 61 203 1.0 4.0 0.00 0.02 0.01 63 1013.8
20260507074104 61 203 2.0 3.0 0.00 0.02 0.01 67 1013.9
20260507073120 60 203 1.0 2.0 0.00 0.02 0.01 70 1013.8
20260507072056 59 203 1.0 3.0 0.00 0.02 0.01 71 1013.9
20260507071052 59 225 0.0 3.0 0.00 0.02 0.01 73 1014.0
20260507070047 58 225 1.0 2.0 0.00 0.02 0.01 76 1013.8
20260507065043 57 225 2.0 4.0 0.00 0.02 0.01 80 1013.9
20260507064038 56 225 1.0 2.0 0.00 0.02 0.01 82 1013.8
20260507063035 55 253 1.0 2.0 0.00 0.02 0.01 85 1013.9
20260507062030 55 270 2.0 3.0 0.00 0.02 0.01 87 1013.6
20260507061026 55 270 1.0 2.0 0.00 0.02 0.01 90 1013.6
20260507060022 54 0.0 1.0 0.00 0.02 0.01 93 1013.7
20260507055018 53 0.0 2.0 0.00 0.02 0.01 92 1013.6
20260507054134 53 0.0 0.0 0.00 0.02 0.01 92 1013.8
20260507053109 52 248 0.0 2.0 0.00 0.02 0.01 92 1013.7
20260507052105 52 0.0 0.0 0.00 0.02 0.01 92 1013.6
20260507051101 52 240 1.0 2.0 0.00 0.02 0.01 92 1013.6
20260507050056 52 0.0 1.0 0.00 0.02 0.01 91 1013.5
20260507045052 52 270 0.0 2.0 0.00 0.02 0.01 91 1013.5
20260507044048 52 270 1.0 2.0 0.00 0.02 0.01 91 1013.4
20260507043044 52 0.0 0.0 0.00 0.02 0.01 91 1013.2
20260507042120 52 0.0 0.0 0.00 0.02 0.01 90 1013.2
20260507041055 52 0.0 0.0 0.00 0.02 0.01 90 1013.2
20260507040031 52 255 0.0 2.0 0.00 0.02 0.01 90 1013.2
20260507035027 52 0.0 1.0 0.00 0.02 0.01 89 1013.0
20260507034023 52 270 0.0 2.0 0.00 0.02 0.01 88 1013.2
20260507033038 53 0.0 0.0 0.00 0.02 0.01 88 1013.1
20260507032115 53 270 0.0 1.0 0.00 0.04 0.01 87 1013.2
20260507031111 53 270 1.0 3.0 0.00 0.04 0.01 87 1013.1
20260507030106 53 0.0 1.0 0.00 0.04 0.01 86 1013.1
20260507025102 53 270 1.0 2.0 0.00 0.07 0.01 87 1013.1
20260507024058 53 264 1.0 4.0 0.00 0.08 0.01 88 1013.1
20260507023054 53 248 1.0 4.0 0.00 0.08 0.01 89 1013.0
20260507022049 53 248 0.0 2.0 0.00 0.08 0.01 90 1012.8
20260507021124 53 248 3.0 4.0 0.00 0.08 0.01 91 1012.7
20260507020040 53 241 0.0 2.0 0.00 0.08 0.01 91 1012.7
20260507015036 53 225 0.0 2.0 0.00 0.08 0.01 91 1012.5
20260507014032 53 248 1.0 2.0 0.00 0.08 0.01 91 1012.6
20260507013028 53 0.0 0.0 0.00 0.08 0.01 91 1012.5
20260507012023 53 0.0 1.0 0.00 0.08 0.01 91 1012.6
20260507011020 53 0.0 0.0 0.00 0.08 0.01 91 1012.5
20260507010015 53 0.0 0.0 0.00 0.08 0.01 91 1012.5
20260507005111 53 0.0 0.0 0.00 0.08 0.01 90 1012.5
20260507004107 53 0.0 0.0 0.00 0.08 0.01 90 1012.5
20260507003103 53 0.0 0.0 0.00 0.08 0.01 90 1012.5
20260507002118 53 0.0 0.0 0.00 0.08 0.01 90 1012.6
20260507001054 53 0.0 1.0 0.00 0.08 0.01 90 1012.8
20260507000110 53 0.0 2.0 0.00 0.08 0.01 90 1012.9
20260506235046 53 231 2.0 4.0 0.00 0.08 0.01 90 1013.0
20260506234041 53 0.0 0.0 0.00 0.08 0.01 89 1013.0
20260506233037 53 0.0 1.0 0.00 0.08 0.01 88 1013.0
20260506232032 53 225 2.0 4.0 0.01 0.08 0.01 87 1013.2
20260506231028 53 225 0.0 2.0 0.01 0.08 0.01 86 1013.1
20260506230104 53 0.0 0.0 0.01 0.08 0.01 85 1013.4
20260506225020 54 0.0 1.0 0.01 0.08 0.01 84 1013.3
20260506224016 54 0.0 0.0 0.01 0.08 0.01 83 1013.3
20260506223111 54 225 1.0 2.0 0.01 0.08 0.01 82 1013.4
20260506222107 54 225 1.0 2.0 0.00 0.07 0.00 81 1013.4
20260506221143 54 0.0 1.0 0.00 0.07 0.00 78 1013.5
20260506220058 55 225 0.0 2.0 0.00 0.07 0.00 75 1013.3
20260506215054 55 225 1.0 2.0 0.00 0.07 0.07 74 1013.4
20260506214049 55 225 1.0 3.0 0.00 0.07 0.07 73 1013.4
20260506213045 56 225 2.0 5.0 0.00 0.07 0.07 72 1013.3
20260506212040 56 203 1.0 3.0 0.00 0.07 0.07 71 1013.4
20260506211057 56 203 0.0 2.0 0.00 0.07 0.07 70 1013.2
20260506210032 57 203 1.0 2.0 0.00 0.07 0.07 68 1013.2
20260506205028 57 203 1.0 2.0 0.00 0.07 0.07 65 1013.3
20260506204024 58 203 3.0 4.0 0.00 0.07 0.07 65 1013.4
20260506203020 58 203 2.0 5.0 0.00 0.07 0.07 66 1013.6
20260506202017 58 203 3.0 7.0 0.00 0.07 0.07 67 1013.6
20260506201112 58 203 4.0 6.0 0.00 0.07 0.07 66 1013.6
20260506200108 58 203 5.0 8.0 0.00 0.07 0.07 67 1013.6
20260506195104 58 225 5.0 8.0 0.00 0.07 0.07 70 1013.5
20260506194100 58 225 3.0 4.0 0.00 0.07 0.07 70 1013.4
20260506193055 58 225 0.0 2.0 0.00 0.07 0.07 68 1013.3
20260506192051 59 225 2.0 3.0 0.00 0.07 0.07 67 1013.1
20260506191107 59 225 1.0 3.0 0.00 0.07 0.07 67 1013.1
20260506185038 59 225 1.0 2.0 0.00 0.07 0.07 67 1013.1
20260506184034 59 225 2.0 4.0 0.00 0.07 0.07 67 1013.0
20260506183030 59 225 2.0 4.0 0.00 0.07 0.07 66 1013.0
20260506182026 60 225 3.0 4.0 0.00 0.07 0.07 66 1012.9
20260506181021 60 225 2.0 7.0 0.00 0.07 0.07 65 1012.7
20260506180018 60 225 2.0 3.0 0.00 0.07 0.07 66 1012.6
20260506175134 60 225 2.0 4.0 0.00 0.07 0.07 66 1012.5
20260506174109 60 225 2.0 4.0 0.00 0.07 0.07 65 1012.6
20260506173105 61 225 3.0 4.0 0.00 0.07 0.07 65 1012.5
20260506172100 61 225 2.0 3.0 0.00 0.07 0.07 64 1012.4
20260506171057 61 225 3.0 5.0 0.00 0.07 0.07 64 1012.4
20260506170052 61 225 2.0 3.0 0.00 0.07 0.07 63 1012.5
20260506165047 62 225 0.0 2.0 0.00 0.07 0.07 63 1012.3
20260506164043 62 225 1.0 2.0 0.00 0.07 0.07 62 1012.2
20260506163119 62 225 1.0 3.0 0.00 0.07 0.07 62 1012.2
20260506162035 62 225 1.0 2.0 0.00 0.07 0.07 62 1012.7
20260506161030 62 225 1.0 2.0 0.00 0.07 0.07 61 1012.6
20260506160026 62 225 2.0 4.0 0.00 0.07 0.07 62 1012.6
20260506155022 62 225 2.0 4.0 0.00 0.07 0.07 63 1012.5
20260506154018 62 225 2.0 7.0 0.00 0.07 0.07 62 1012.6
20260506153134 62 225 5.0 8.0 0.00 0.07 0.07 62 1012.7
20260506152110 62 270 5.0 9.0 0.00 0.07 0.07 62 1012.8
20260506151105 63 270 7.0 12.0 0.00 0.07 0.07 61 1012.7
20260506145057 64 225 4.0 8.0 0.00 0.07 0.07 56 1012.7
20260506144053 64 225 4.0 8.0 0.00 0.08 0.07 57 1012.5
20260506143049 65 225 6.0 11.0 0.00 0.08 0.07 55 1012.3
20260506142045 66 208 6.0 11.0 0.00 0.08 0.07 55 1012.4
20260506141040 65 225 5.0 8.0 0.00 0.08 0.07 56 1012.2
20260506140036 65 225 5.0 8.0 0.00 0.08 0.07 57 1012.3
20260506135031 65 225 4.0 7.0 0.00 0.08 0.07 56 1012.3
20260506134027 65 225 2.0 8.0 0.00 0.08 0.07 57 1012.5
20260506133023 65 205 2.0 4.0 0.00 0.08 0.07 56 1012.6
20260506132018 64 199 2.0 3.0 0.00 0.08 0.07 57 1012.6
20260506131114 64 203 1.0 4.0 0.00 0.08 0.07 56 1012.8
20260506130110 64 180 2.0 4.0 0.00 0.08 0.07 57 1013.0
20260506125105 64 188 2.0 4.0 0.00 0.08 0.07 59 1013.0
20260506124101 64 180 3.0 5.0 0.00 0.08 0.07 59 1012.9
20260506123056 63 225 3.0 7.0 0.00 0.08 0.07 62 1013.0
20260506122112 63 225 4.0 7.0 0.01 0.08 0.07 62 1013.0
20260506121048 63 180 3.0 6.0 0.01 0.08 0.07 61 1012.9
20260506120044 62 180 3.0 5.0 0.01 0.08 0.07 61 1013.0
20260506115040 63 180 3.0 8.0 0.01 0.08 0.07 61 1012.9
20260506114035 63 180 4.0 8.0 0.01 0.08 0.07 61 1013.1
20260506113031 62 186 4.0 7.0 0.01 0.08 0.07 62 1013.1
20260506112027 62 225 2.0 4.0 0.00 0.07 0.06 62 1013.1
20260506111022 61 180 3.0 5.0 0.00 0.07 0.06 63 1013.1
20260506110019 61 180 2.0 4.0 0.00 0.07 0.06 65 1013.3
20260506105114 61 180 3.0 5.0 0.00 0.07 0.06 65 1013.4
20260506104110 61 180 3.0 4.0 0.00 0.07 0.06 69 1013.5
20260506103126 60 180 2.0 4.0 0.00 0.07 0.06 70 1013.6
20260506102101 60 180 2.0 3.0 0.00 0.07 0.06 71 1013.8
20260506101057 59 180 0.0 2.0 0.00 0.07 0.06 70 1013.7
20260506100053 59 180 2.0 4.0 0.00 0.07 0.06 68 1013.7
20260506095128 60 180 3.0 5.0 0.00 0.07 0.06 65 1013.8
20260506094044 60 203 2.0 6.0 0.00 0.07 0.06 64 1013.7